EDT,Max TemperatureF,Mean TemperatureF,Min TemperatureF,Max Dew PointF,MeanDew PointF,Min DewpointF,Max Humidity, Mean Humidity, Min Humidity, Max Sea Level PressureIn, Mean Sea Level PressureIn, Min Sea Level PressureIn, Max VisibilityMiles, Mean VisibilityMiles, Min VisibilityMiles, Max Wind SpeedMPH, Mean Wind SpeedMPH, Max Gust SpeedMPH,PrecipitationIn, CloudCover, Events, WindDirDegrees
2012-10-1,67,54,40,52,45,39,96,72,48,29.96,29.89,29.81,10,9,4,15,7,17,0.02,7,Rain,67
2012-10-2,61,58,54,60,55,51,100,95,90,29.91,29.83,29.78,10,5,2,17,10,21,0.30,8,Rain,59
2012-10-3,65,61,57,61,56,51,100,84,67,30.09,29.99,29.91,10,6,0,17,9,22,T,7,Fog-Rain,177
2012-10-4,79,65,50,56,52,48,96,68,39,30.15,30.10,30.06,10,10,10,22,11,29,0.01,3,,215
2012-10-5,60,51,41,57,47,40,100,93,86,30.15,30.10,30.06,10,7,2,17,9,21,0.66,8,Rain,263
2012-10-6,53,44,34,39,35,32,100,73,46,30.18,30.12,30.06,10,10,10,16,7,21,0.00,5,,276
2012-10-7,52,45,38,38,35,29,92,68,44,30.21,30.16,30.14,10,10,10,17,6,22,0.00,6,,253
2012-10-8,55,42,28,34,29,26,92,64,35,30.26,30.20,30.14,10,10,10,14,5,20,0.00,1,,203
2012-10-9,62,49,35,40,35,30,85,61,36,30.15,30.04,29.91,10,10,10,22,11,28,0.00,4,,196
2012-10-10,53,43,32,45,36,25,93,66,39,30.24,30.03,29.87,10,10,5,24,11,32,0.04,5,Rain,270
2012-10-11,61,46,31,37,32,28,85,59,32,30.27,30.20,30.12,10,10,10,23,10,30,0.00,2,,226
2012-10-12,55,46,37,40,32,24,71,52,32,30.45,30.36,30.20,10,10,9,15,8,20,0.00,4,,49
2012-10-13,65,51,36,66,46,30,93,75,56,30.36,30.14,29.94,10,9,5,21,9,26,0.19,6,Rain,164
2012-10-14,74,63,51,63,58,47,93,75,57,29.92,29.71,29.54,10,9,2,36,22,47,0.17,8,Rain,208
2012-10-15,54,46,37,48,44,36,93,78,63,30.00,29.86,29.74,10,9,3,16,9,25,0.01,7,Rain,278
2012-10-16,64,48,31,43,39,30,100,73,46,30.02,29.92,29.75,10,10,4,15,7,18,T,4,Fog,173
2012-10-17,74,62,50,55,50,44,83,61,38,29.74,29.64,29.48,10,9,4,32,14,40,0.47,7,Rain-Thunderstorm,175
2012-10-18,63,55,46,55,45,32,96,66,35,29.65,29.50,29.38,10,8,4,32,14,47,0.39,7,Rain,217
2012-10-19,52,49,45,46,44,41,93,82,71,29.65,29.58,29.55,10,9,5,18,10,24,0.27,8,Rain,199
2012-10-20,55,47,39,45,42,40,93,77,61,29.98,29.80,29.65,10,10,7,20,11,25,0.00,6,,251
2012-10-21,64,50,35,48,43,35,100,78,56,30.13,30.08,29.98,10,9,5,13,6,17,0.00,1,,178
2012-10-22,74,61,47,61,54,44,93,75,57,30.09,30.03,29.97,10,10,2,22,8,26,0.24,6,Rain-Thunderstorm,171
2012-10-23,65,61,57,60,57,54,93,83,73,30.03,29.98,29.95,10,10,7,28,10,36,0.20,7,Rain-Thunderstorm,215
2012-10-24,77,68,58,61,56,53,87,72,56,30.05,30.01,29.97,10,10,10,16,9,21,0.00,4,,191
2012-10-25,76,65,54,58,55,51,93,72,50,30.00,29.93,29.86,10,10,10,24,13,32,0.00,3,,183
2012-10-26,64,52,40,57,41,33,93,75,56,30.25,30.14,29.91,10,10,4,23,11,35,0.02,7,Rain,332
2012-10-27,54,45,35,34,31,27,82,60,38,30.24,30.20,30.15,10,10,10,17,10,21,0.00,4,,352
2012-10-28,49,43,37,33,31,29,76,63,50,30.22,30.17,30.14,10,10,7,20,12,25,0.00,7,,11
2012-10-29,46,41,36,29,24,19,70,52,34,30.15,30.05,29.82,10,10,10,29,18,37,0.00,7,,340
2012-10-30,41,39,36,37,33,23,92,69,46,29.78,29.63,29.57,10,9,4,32,19,46,0.27,8,Rain-Snow,324
2012-10-31,44,41,38,39,37,35,93,82,70,29.81,29.71,29.63,10,8,5,21,13,29,0.05,8,Rain,301